Location: Asheville, NC
(35.6000°N, 82.5500°W)
Time: 20:32:46
(UTC-04:00)

YUBILEINY - Pass Details

Date: 12 March 2018
Orbit: 1479 x 1508 km, 82.5° (Epoch: 20 June)

Event Time Altitude Azimuth Distance (km) Brightness Sun altitude
Rises 20:33:00 0° 222° (SW) 4,593 ? -12.6°
Reaches altitude 10° 20:36:28 10° 233° (SW) 3,614 ? -13.3°
Maximum altitude 20:43:32 27° 289° (WNW) 2,520 ? -14.7°
Drops below altitude 10° 20:50:38 10° 344° (NNW) 3,622 ? -16.1°
Sets 20:54:10 0° 356° (N) 4,606 ? -16.8°
